Find Starlink 37846

NORAD ID: 100492 Int'l Des: 2026-196 Owner: SPXS Country: US Constellation: starlink operational

当前视图

正在加载3D地球...

About Starlink 37846

Starlink 37846 (NORAD 100492) is a starlink constellation satellite launched Aug 25, 2026 by SPXS of US. with a mass of 575.00 kg.

即将过境

Passes for default location (London). Set your location on the main map for personalized predictions.

高度历史

Loading altitude history...

两行轨道根数

1 A0492U 26196V 26249.56383538 -.00814174 00000-0 -36788-2 0 9994
2 A0492 53.1594 311.3994 0001865 45.4386 314.6790 15.85221010 3158
Epoch: Sep 6, 2026 • Age: 7 hours

当前状态

高度 336.5 km
远地点 / 近地点 N/A
速度 7.71 km/s
星下点 -52.93°S, 67.64°W
发射日期 Aug 25, 2026
运行时间 12 days
类型 internet

技术详情

分类 Payload
质量 575.00 kg
干质量 530.00 kg
总质量 575.00 kg
长度 0.30 m
直径 4.10 m
跨度 29.00 m
形状 Box + pan
制造商 SPXS
平台类型 Starlink V2MO
阶段状态 In Orbit
所有者/国家 SPXS/US

Most Searched